User: anonymous   Login
Location: Unspecified
(0.0000°N, 0.0000°E)
Time: 00:55:32
(UTC+00:00)
Language:

ONEWEB-0261 - Orbit

View from above orbital plane
View from above orbital plane
View from above satellite
View from above satellite

Ground track
Ground track

The orbit is defined by the following mean orbital elements,

1 48979U          26145.48812699 +.00000000 +00000-0 +11077-3 0 00004
2 48979  87.9103 233.2912 0001798  92.2362 267.8975 13.16594226    01
Epoch (UTC): 25 May 2026 11:42:54
Eccentricity: 0.0001798
inclination: 87.9103°
perigee height: 1196 km
apogee height: 1199 km
right ascension of ascending node: 233.2912°
argument of perigee: 92.2362°
revolutions per day: 13.16594226
mean anomaly at epoch: 267.8975°

The dashed part of the orbit path shows where the satellite is in the earth's shadow,  

DLR